Regional Weather Roundup
Issued by NWS

Home | Current Version | Previous Version | Text Only | Print | Product List | Glossary On
Versions: 1 2 3 4 5 6 7 8 9 10 11 12 13 14 15 16 17 18 19 20 21 22 23 24 25 26 27 28 29 30 31 32 33 34 35 36 37 38 39 40 41 42 43 44 45 46 47 48 49 50
000
ASUS45 KCYS 281310
RWRWY

WYOMING REGIONAL WEATHER ROUNDUP
NATIONAL WEATHER SERVICE CHEYENNE WY
600 AM MST WED JAN 28 2015

NOTE:  "FAIR" INDICATES FEW OR NO CLOUDS BELOW 12,000 FEET
WITH NO SIGNIFICANT WEATHER AND/OR OBSTRUCTIONS TO VISIBILITY.

WYZ001-281400-
YELLOWSTONE NATIONAL PARK

CITY           SKY/WX    TMP DP  RH WIND       PRES   REMARKS
LK YELLOWSTONE   N/A     30  28  92 CALM      30.15R
W YELLOWSTONE  NOT AVBL

$$
WYZ002>013-054>058-071-098>099-281400-
NORTHERN WYOMING

CITY           SKY/WX    TMP DP  RH WIND       PRES   REMARKS
JACKSON        CLOUDY    36  34  93 S10       30.14R WCI  28
CODY           CLOUDY    45  32  61 W6        30.02R
GREYBULL       LGT RAIN  34  33  96 SE7       30.02S WCI  28
WORLAND        CLOUDY    34  31  88 CALM      30.02R
SHERIDAN       CLOUDY    47  33  58 VRB3      29.95R
BUFFALO        CLOUDY    50  29  44 NW16      29.96R
GILLETTE       CLOUDY    45  29  53 W10       29.93R
HULETT           N/A    N/A N/A N/A MISG        N/A
NEWCASTLE      FAIR      32  28  86 N10       29.93R WCI  24

$$
WYZ014>020-022>026-101>103-281400-
CENTRAL WYOMING

CITY           SKY/WX    TMP DP  RH WIND       PRES   REMARKS
BIG PINEY      FAIR      22  19  89 E6        30.17R WCI  14
PINEDALE       CLOUDY    23  23 100 CALM      30.18S
DUBOIS         CLOUDY    32  30  93 NW12      30.07S WCI  23
LANDER         FAIR      33  25  72 VRB7      30.03R WCI  27
RIVERTON       CLOUDY    35  27  72 W9        30.05R WCI  28
CASPER         FAIR      37  29  72 SW10      30.01F WCI  30
DOUGLAS        FAIR      38  29  70 W9        30.00R WCI  31

$$
WYZ021-027>030-104>119-281400-
SOUTHERN WYOMING

CITY           SKY/WX    TMP DP  RH WIND       PRES   REMARKS
EVANSTON       FLURRIES  33  29  85 SW14      30.20R WCI  23
KEMMERER       CLOUDY    32  32 100 CALM      30.19R
FORT BRIDGER   FAIR      37  32  84 W13G20    30.22R WCI  28
ROCK SPRINGS   FAIR      33  28  81 W14       30.18S WCI  23
DIXON          CLOUDY    36  32  87 SW8       30.23S WCI  29
RAWLINS        FAIR      35  29  78 W21G30    30.11F WCI  24
SARATOGA       PTSUNNY   36  30  80 W12G17    30.16R WCI  27
LARAMIE        FAIR      37  26  64 W20       30.08S WCI  27
CHEYENNE       FAIR      43  30  60 W20       30.07R
TORRINGTON     FAIR      48  33  56 W18G29    29.95S
PINE BLUFFS    FAIR      41  32  70 NW10      30.01R

$$


USA.gov is the U.S. government's official web portal to all federal, state and local government web resources and services.